Airport METAR Information

LTBA 181950Z 35011KT 9999 SCT012 BKN025 09/06 Q1023 NOSIG

VATSIM Livefeed

Card image cap

ATC Bookings

No position booked

Card image cap

Active ATC

No controllers online

Blog

Read our latest news and get to know us better.